Regional Weather Roundup
Issued by NWS

Home | Current Version | Previous Version | Graphics & Text | Print | Product List | Glossary On
Versions: 1 2 3 4 5 6 7 8 9 10 11 12 13 14 15 16 17 18 19 20 21 22 23 24 25 26 27 28 29 30 31 32 33 34 35 36 37 38 39 40 41 42 43 44 45 46 47 48 49 50
000
ASUS43 KLOT 041106
RWRIL

ILLINOIS REGIONAL WEATHER ROUNDUP
NATIONAL WEATHER SERVICE CHICAGO/ROMEOVILLE IL
500 AM CST WED MAR 04 2015

NOTE: "FAIR" INDICATES FEW OR NO CLOUDS BELOW 12,000 FEET WITH NO
SIGNIFICANT WEATHER AND/OR OBSTRUCTIONS TO VISIBILITY.

* THESE STATIONS ARE NOT UNDER NWS QUALITY CONTROL. THEY ALSO MAY NOT
  REPORT WEATHER SUCH AS PRECIPITATION OR FOG.

ILZ001-002-007-009-015-016-024-041200-
NORTHWEST ILLINOIS

CITY           SKY/WX    TMP DP  RH WIND       PRES   REMARKS
MOLINE         CLEAR     11   1  64 NW18G24   30.12R WCI  -7
STERLING*      CLEAR     12   5  73 NW13      30.06R WCI  -3
SAVANNA*       FAIR      12   3  67 NW9       30.10R WCI   0
$$

ILZ003-004-008-010-011-017-018-041200-
NORTH CENTRAL ILLINOIS

CITY           SKY/WX    TMP DP  RH WIND       PRES   REMARKS
ROCKFORD       PTCLDY    12   5  73 NW14      30.04R WCI  -3
FREEPORT*      PTCLDY    11   4  75 NW15G21   30.05R WCI  -5
ROCHELLE*      CLEAR     12   6  77 NW10      30.03R WCI  -2
DE KALB*       CLEAR     12   7  79 NW21G28   29.99R WCI  -7
PERU*          CLEAR     15   9  77 W13G18    30.07R WCI   0
$$

ILZ005-006-012>014-019>023-041200-
NORTHEAST ILLINOIS

CITY           SKY/WX    TMP DP  RH WIND       PRES   REMARKS
CHICAGO-OHARE  MOCLDY    20  14  77 W14       29.97R WCI   7
CHICAGO-MIDWAY CLOUDY    24  17  74 W12       29.98R WCI  13
AURORA         CLEAR     15   8  73 W14       30.00R WCI   0
LANSING*       CLOUDY    28  21  75 W9G16     29.97R WCI  19
JOLIET*        CLEAR     18  11  76 W7G16     30.03R WCI   9
WAUKEGAN       PTCLDY    20  14  77 W7        29.95R WCI  11
DUPAGE AIRPORT CLEAR     17  11  77 NW9       29.97R WCI   6
KANKAKEE*      CLOUDY    25  20  84 W13       30.01R WCI  13
WHEELING       PTCLDY    22  14  71 NW9       29.98R WCI  12
MORRIS*        FAIR      17  12  82 NW14      30.02R WCI   3
ROMEOVILLE*    CLEAR     18  13  79 NW10G16   30.01R WCI   7
NORTHERLY ISL    N/A     26  19  75 W8          N/A  WCI  18
$$

LMZ740>746-041200-
SOUTHERN LAKE MICHIGAN

STATION/POSITION SKY/WX   TEMP    WIND        PRES    VSBY  WAVE
                          AIR SEA DIR/SP/G                  HT/PER
                          (F)     (DEG/KT/KT) (MB)    (MI)  (FT/S)
WAUKEGAN HARBOR            22                   N/A
HARRISON CRIB              25     290/ 18/ 22   N/A
BURNHAM HARBOR             25     280/  8/ 15   N/A
CALUMET HARBOR             27     260/  7/ 13 1013.5R
MICHIGAN CITY              30     270/ 14/ 16   N/A
$$

ILZ025>027-034>036-040-047-049-050-058-095>099-041200-
WEST-CENTRAL ILLINOIS

CITY           SKY/WX    TMP DP  RH WIND       PRES   REMARKS
QUINCY         CLEAR     16   7  67 N13       30.10S WCI   2
GALESBURG*     PTCLDY    11   5  76 NW14      30.11R WCI  -5
MACOMB*        PTCLDY    13   7  79 NW15      30.13R WCI  -3
JACKSONVILLE*  CLEAR     20  11  68 NW21G26   30.09R WCI   4
PITTSFIELD*    FAIR      19  10  68 NW16G26   30.11R WCI   4
$$

ILZ028>032-037-038-041>044-048-051>054-059>061-041200-
CENTRAL ILLINOIS

CITY           SKY/WX    TMP DP  RH WIND       PRES   REMARKS
PONTIAC        CLEAR     17  13  82 NW15      30.05R WCI   3
BLOOMINGTON    CLEAR     18  12  77 NW20      30.04R WCI   2
DECATUR        CLOUDY    26  20  77 NW21G26   30.02R WCI  12
PEORIA         PTCLDY    16   6  65 NW9G20    30.09R WCI   4
LACON*         PTCLDY    13   6  73 NW10G16   30.08R WCI   0
LINCOLN*       PTCLDY    21  13  71 NW12G20   30.08R WCI   9
SPRINGFIELD    CLEAR     20  12  71 NW20G30   30.06R WCI   4
TAYLORVILLE    MOCLDY    25  19  80 NW20      30.04R WCI  11
$$

ILZ033-039-045-046-055>057-062-063-041200-
EAST-CENTRAL ILLINOIS

CITY           SKY/WX    TMP DP  RH WIND       PRES   REMARKS
CHAMPAIGN      CLOUDY    27  22  81 NW15      30.00R WCI  15
DANVILLE*      CLOUDY    28  25  86 NW17      29.96R WCI  16
RANTOUL*       CLOUDY    24  18  77 NW20G26   30.01R WCI  10
MATTOON        CLOUDY    31  28  89 NW16      29.99R WCI  20
PARIS*         CLOUDY    32  29  90 NW12      29.98R WCI  23
$$

ILZ079-100>102-041200-
SOUTHWEST ILLINOIS

CITY           SKY/WX    TMP DP  RH WIND       PRES   REMARKS
ALTON          CLOUDY    30  19  64 NW12G26   30.04R WCI  20
BELLEVILLE     CLOUDY    33  33  96 N15G22    30.00R WCI  23
CAHOKIA*       CLOUDY    32  27  81 N22G28    30.02R WCI  19
SPARTA*        DRIZZLE   32  31  95 N6        30.00S WCI  27
$$

ILZ064>066-069>071-074>076-080>082-084>086-088>090-092>094-041200-
SOUTH-CENTRAL ILLINOIS

CITY           SKY/WX    TMP DP  RH WIND       PRES   REMARKS
CARBONDALE     LGT RAIN  34  32  92 N9        30.00R FOG     WCI  27
CAIRO*         RAIN     N/A N/A N/A N8        29.94R
EFFINGHAM*     CLOUDY    34  28  80 NW10      30.01R WCI  26
MARION         LGT RAIN  36  36 100 N7        30.00R WCI  30
MT. VERNON     CLOUDY    34  28  80 N5        29.99R WCI  30
CENTRALIA*     CLOUDY    33  31  92 N10       29.98S WCI  25
SALEM*         CLOUDY    35  32  87 N10       29.99R WCI  27
METROPOLIS*    RAIN      42  42 100 CALM      29.92R
$$

ILZ067-068-072-073-078-083-087-091-041200-
SOUTHEAST ILLINOIS

CITY           SKY/WX    TMP DP  RH WIND       PRES   REMARKS
LAWRENCEVILLE  CLOUDY    34  32  92 NW8       29.97R WCI  27
FLORA*         CLOUDY    33  32  96 N10       29.99R WCI  25
FAIRFIELD*     DRIZZLE   33  32  96 NW6       29.99R WCI  28
HARRISBURG*    RAIN      36  36 100 N8        29.99R WCI  29
ROBINSON*      CLOUDY    33  32  95 N8        29.98R WCI  26
CARMI*         RAIN      36  36 100 N9        29.97R WCI  29
$$

ABBREVIATIONS USED IN REMARKS
   TC - TEMPERATURE IN CELSIUS
  WCI - WIND CHILL INDEX
   HX - HEAT INDEX
  VSB - VISIBILITY
$$



USA.gov is the U.S. government's official web portal to all federal, state and local government web resources and services.